Date String (YYYY-MM-DD hh:mm:ss) UTC,Instrument flags,Ambient pressure (hPa),Sample flow (lpm),Bypass flow (lpm),Sample temperature (°C),Ambient temperature (°C),ASC tube jacket temperature (°C),LED temperature (°C),Box temperature (°C),Sample RH (%),Span deviation,Mass concentration (μg/m³),Mass concentration (μg/m³),Mass concentration (μg/m³)
DateTimeUTC,F1_M11,P_M11,Q1_M11,Q2_M11,T1_M11,T2_M11,T3_M11,T4_M11,T5_M11,U1_M11,ZSPAN_M11,X2_M11,X0_M11,X1_M11
2023-02-05 07:00:00,,0825.5,4.99,0.00,22.4,21.1,00.0,31.3,24.2,08.1,0000.0,0000.93,0001.84,0000.56
2023-02-05 07:01:00,,0825.5,4.97,0.00,22.4,21.1,00.0,31.3,24.2,08.0,0000.0,0000.95,0002.46,0000.56
2023-02-05 07:02:00,,0825.5,5.04,0.00,22.4,21.1,00.0,31.3,24.2,07.9,0000.0,0000.97,0002.56,0000.57
2023-02-05 07:03:00,,0825.5,4.97,0.00,22.4,21.1,00.0,31.3,24.2,07.8,0000.0,0000.95,0002.54,0000.56
2023-02-05 07:04:00,,0825.4,4.99,0.00,22.4,21.1,00.0,31.3,24.2,07.8,0000.0,0000.96,0002.68,0000.57
2023-02-05 07:05:00,,0825.4,5.02,0.00,22.4,21.2,00.0,31.3,24.2,07.8,0000.0,0000.97,0002.62,0000.58
2023-02-05 07:06:00,,0825.4,4.97,0.00,22.4,21.2,00.0,31.3,24.3,07.7,0000.0,0000.98,0002.63,0000.57
2023-02-05 07:07:00,,0825.4,5.04,0.00,22.4,21.2,00.0,31.3,24.3,07.6,0000.0,0001.03,0002.83,0000.56
2023-02-05 07:08:00,,0825.5,4.98,0.00,22.4,21.2,00.0,31.3,24.3,08.3,0000.0,0001.07,0003.12,0000.56
2023-02-05 07:09:00,,0825.4,4.97,0.00,22.4,21.2,00.0,31.3,24.2,07.9,0000.0,0001.10,0003.22,0000.56
2023-02-05 07:10:00,,0825.5,5.05,0.00,22.4,21.2,00.0,31.3,24.2,07.9,0000.0,0001.11,0003.38,0000.54
2023-02-05 07:11:00,,0825.4,4.97,0.00,22.4,21.2,00.0,31.3,24.2,07.8,0000.0,0001.13,0003.43,0000.54
2023-02-05 07:12:00,,0825.5,5.01,0.00,22.4,21.1,00.0,31.3,24.2,08.4,0000.0,0001.13,0003.08,0000.53
2023-02-05 07:13:00,,0825.5,5.01,0.00,22.4,21.1,00.0,31.3,24.2,08.1,0000.0,0001.14,0002.87,0000.53
2023-02-05 07:14:00,,0825.5,4.97,0.00,22.4,21.1,00.0,31.3,24.3,07.7,0000.0,0001.15,0002.92,0000.52
2023-02-05 07:15:00,,0825.5,5.05,0.00,22.4,21.1,00.0,31.3,24.3,07.8,0000.0,0001.13,0002.79,0000.50
2023-02-05 07:16:00,,0825.5,4.97,0.00,22.4,21.1,00.0,31.3,24.3,07.9,0000.0,0001.13,0002.73,0000.49
2023-02-05 07:17:00,,0825.5,5.01,0.00,22.4,21.1,00.0,31.3,24.3,08.7,0000.0,0001.12,0002.89,0000.48
2023-02-05 07:18:00,,0825.5,4.99,0.00,22.4,21.1,00.0,31.3,24.2,08.0,0000.0,0001.08,0002.80,0000.47
2023-02-05 07:19:00,,0825.5,4.98,0.00,22.4,21.1,00.0,31.3,24.3,08.0,0000.0,0001.06,0002.53,0000.47
2023-02-05 07:20:00,,0825.4,5.04,0.00,22.4,21.1,00.0,31.3,24.2,08.2,0000.0,0001.03,0002.43,0000.47
2023-02-05 07:21:00,,0825.4,4.97,0.00,22.4,21.1,00.0,31.3,24.2,08.4,0000.0,0000.97,0002.22,0000.46
2023-02-05 07:22:00,,0825.4,5.03,0.00,22.4,21.1,00.0,31.3,24.2,08.5,0000.0,0000.97,0002.24,0000.46
2023-02-05 07:23:00,,0825.3,4.98,0.00,22.4,21.1,00.0,31.3,24.2,08.5,0000.0,0001.02,0002.28,0000.46
2023-02-05 07:24:00,,0825.3,4.98,0.00,22.4,21.1,00.0,31.3,24.2,08.8,0000.0,0001.04,0002.29,0000.45
2023-02-05 07:25:00,,0825.3,5.04,0.00,22.4,21.0,00.0,31.3,24.1,08.9,0000.0,0001.04,0002.26,0000.45
2023-02-05 07:26:00,,0825.2,4.96,0.00,22.4,21.0,00.0,31.3,24.1,08.9,0000.0,0001.05,0002.32,0000.45
2023-02-05 07:27:00,,0825.1,5.04,0.00,22.4,20.9,00.0,31.2,24.0,08.8,0000.0,0001.03,0002.35,0000.45
2023-02-05 07:28:00,,0825.1,4.96,0.00,22.3,20.9,00.0,31.2,24.0,08.5,0000.0,0001.06,0002.28,0000.45
2023-02-05 07:29:00,,0825.1,5.04,0.00,22.3,20.8,00.0,31.2,23.9,08.7,0000.0,0001.10,0002.42,0000.45
2023-02-05 07:30:00,,0825.2,4.96,0.00,22.3,20.7,00.0,31.2,23.9,09.0,0000.0,0001.09,0002.71,0000.44
2023-02-05 07:31:00,,0825.1,5.02,0.00,22.3,20.7,00.0,31.2,23.9,08.5,0000.0,0001.17,0003.04,0000.45
2023-02-05 07:32:00,,0825.1,4.99,0.00,22.3,20.7,00.0,31.2,23.9,08.2,0000.0,0001.24,0003.23,0000.45
2023-02-05 07:33:00,,0825.2,4.98,0.00,22.3,20.7,00.0,31.2,23.9,08.0,0000.0,0001.25,0003.87,0000.45
2023-02-05 07:34:00,,0825.1,5.03,0.00,22.2,20.7,00.0,31.2,23.9,08.4,0000.0,0001.26,0004.06,0000.46
2023-02-05 07:35:00,,0825.1,4.96,0.00,22.2,20.7,00.0,31.2,23.9,08.4,0000.0,0001.27,0004.09,0000.48
2023-02-05 07:36:00,,0825.2,5.04,0.00,22.2,20.6,00.0,31.2,23.8,08.4,0000.0,0001.26,0004.18,0000.48
2023-02-05 07:37:00,,0825.1,4.97,0.00,22.2,20.6,00.0,31.1,23.8,08.4,0000.0,0001.26,0004.11,0000.49
2023-02-05 07:38:00,,0825.2,5.04,0.00,22.2,20.6,00.0,31.1,23.9,08.4,0000.0,0001.25,0004.04,0000.48
2023-02-05 07:39:00,,0825.2,4.97,0.00,22.2,20.6,00.0,31.1,23.8,08.6,0000.0,0001.28,0004.13,0000.49
2023-02-05 07:40:00,,0825.2,5.02,0.00,22.2,20.6,00.0,31.1,23.8,08.7,0000.0,0001.24,0004.03,0000.49
2023-02-05 07:41:00,,0825.2,4.99,0.00,22.2,20.6,00.0,31.1,23.8,08.1,0000.0,0001.22,0004.39,0000.48
2023-02-05 07:42:00,,0825.2,4.98,0.00,22.2,20.6,00.0,31.1,23.8,08.2,0000.0,0001.18,0004.73,0000.48
2023-02-05 07:43:00,,0825.2,5.03,0.00,22.1,20.7,00.0,31.1,23.8,08.2,0000.0,0001.13,0004.63,0000.48
2023-02-05 07:44:00,,0825.2,4.97,0.00,22.1,20.7,00.0,31.1,23.8,08.0,0000.0,0001.15,0004.02,0000.48
2023-02-05 07:45:00,,0825.2,5.05,0.00,22.1,20.7,00.0,31.1,23.8,07.9,0000.0,0001.17,0004.04,0000.48
2023-02-05 07:46:00,,0825.2,4.96,0.00,22.1,20.7,00.0,31.1,23.8,08.0,0000.0,0001.17,0004.02,0000.48
2023-02-05 07:47:00,,0825.2,5.04,0.00,22.1,20.7,00.0,31.0,23.8,08.2,0000.0,0001.19,0004.30,0000.48
2023-02-05 07:48:00,,0825.2,4.97,0.00,22.1,20.7,00.0,31.0,23.8,08.3,0000.0,0001.16,0004.44,0000.46
2023-02-05 07:49:00,,0825.2,5.01,0.00,22.1,20.7,00.0,31.0,23.8,08.2,0000.0,0001.15,0004.38,0000.46
2023-02-05 07:50:00,,0825.3,5.00,0.00,22.1,20.7,00.0,31.0,23.8,08.0,0000.0,0001.09,0004.20,0000.47
2023-02-05 07:51:00,,0825.3,4.97,0.00,22.1,20.7,00.0,31.0,23.8,08.4,0000.0,0001.11,0004.13,0000.48
2023-02-05 07:52:00,,0825.3,5.04,0.00,22.1,20.7,00.0,31.0,23.8,07.9,0000.0,0001.15,0003.62,0000.50
2023-02-05 07:53:00,,0825.3,4.97,0.00,22.1,20.7,00.0,31.0,23.8,08.0,0000.0,0001.23,0003.17,0000.51
2023-02-05 07:54:00,,0825.3,5.03,0.00,22.1,20.7,00.0,31.0,23.8,07.7,0000.0,0001.24,0003.19,0000.51
2023-02-05 07:55:00,,0825.3,4.96,0.00,22.1,20.7,00.0,31.0,23.8,07.4,0000.0,0001.23,0003.18,0000.51
2023-02-05 07:56:00,,0825.3,5.02,0.00,22.1,20.7,00.0,31.0,23.8,07.6,0000.0,0001.15,0002.88,0000.51
2023-02-05 07:57:00,,0825.3,4.98,0.00,22.1,20.7,00.0,31.0,23.8,07.5,0000.0,0001.11,0002.80,0000.50
2023-02-05 07:58:00,,0825.3,4.99,0.00,22.1,20.6,00.0,31.0,23.8,07.3,0000.0,0001.05,0002.51,0000.49
2023-02-05 07:59:00,,0825.3,5.03,0.00,22.1,20.6,00.0,31.0,23.9,07.3,0000.0,0001.03,0002.10,0000.50
